TimeCDT,TemperatureF,Dew PointF,Humidity,Sea Level PressureIn,VisibilityMPH,Wind Direction,Wind SpeedMPH,Gust SpeedMPH,PrecipitationIn,Events,Conditions,WindDirDegrees,DateUTC
12:53 AM,57.0,50.0,77,30.02,10.0,Calm,Calm,-,N/A,,Clear,0,2013-09-21 05:53:00
1:53 AM,53.1,48.9,86,30.02,10.0,SSE,3.5,-,N/A,,Clear,150,2013-09-21 06:53:00
2:53 AM,53.1,48.9,86,30.01,10.0,South,5.8,-,N/A,,Clear,190,2013-09-21 07:53:00
3:53 AM,53.1,48.9,86,30.00,10.0,Calm,Calm,-,N/A,,Clear,0,2013-09-21 08:53:00
4:53 AM,52.0,48.0,86,30.00,10.0,SE,5.8,-,N/A,,Clear,140,2013-09-21 09:53:00
5:53 AM,51.1,48.0,89,30.01,10.0,Calm,Calm,-,N/A,,Clear,0,2013-09-21 10:53:00
6:53 AM,51.1,46.9,86,30.02,10.0,Calm,Calm,-,N/A,,Clear,0,2013-09-21 11:53:00
7:53 AM,51.1,48.0,89,30.02,10.0,SSE,3.5,-,N/A,,Clear,160,2013-09-21 12:53:00
8:53 AM,57.0,52.0,83,30.02,10.0,Calm,Calm,-,N/A,,Clear,0,2013-09-21 13:53:00
9:53 AM,64.9,52.0,63,30.02,10.0,SSE,3.5,-,N/A,,Clear,160,2013-09-21 14:53:00
10:53 AM,72.0,52.0,49,30.01,10.0,Calm,Calm,-,N/A,,Clear,0,2013-09-21 15:53:00
11:53 AM,78.1,51.1,39,29.99,10.0,SW,5.8,-,N/A,,Clear,230,2013-09-21 16:53:00
12:53 PM,81.0,46.9,30,29.96,10.0,South,6.9,-,N/A,,Clear,190,2013-09-21 17:53:00
1:53 PM,82.9,48.9,31,29.95,10.0,Variable,3.5,-,N/A,,Clear,0,2013-09-21 18:53:00
2:53 PM,84.9,45.0,25,29.92,10.0,SW,10.4,-,N/A,,Clear,230,2013-09-21 19:53:00
3:53 PM,84.9,43.0,23,29.89,10.0,West,9.2,-,N/A,,Clear,260,2013-09-21 20:53:00
4:53 PM,84.9,44.1,24,29.87,10.0,SW,9.2,17.3,N/A,,Clear,220,2013-09-21 21:53:00
5:53 PM,84.0,44.1,25,29.86,10.0,SSW,9.2,-,N/A,,Clear,200,2013-09-21 22:53:00
6:53 PM,79.0,48.0,34,29.85,10.0,South,6.9,-,N/A,,Clear,180,2013-09-21 23:53:00
7:53 PM,70.0,51.1,51,29.86,10.0,South,8.1,-,N/A,,Clear,170,2013-09-22 00:53:00
8:53 PM,69.1,51.1,53,29.87,10.0,South,8.1,-,N/A,,Clear,180,2013-09-22 01:53:00
9:53 PM,66.9,52.0,59,29.88,10.0,South,8.1,-,N/A,,Clear,180,2013-09-22 02:53:00
10:53 PM,63.0,52.0,67,29.88,10.0,South,5.8,-,N/A,,Clear,180,2013-09-22 03:53:00
11:53 PM,60.1,51.1,72,29.88,10.0,South,8.1,-,N/A,,Clear,180,2013-09-22 04:53:00